Flag for Germany Weather past 2 weeks in Hemer, North Rhine-Westphalia, Germany

Now
54 °F

Scattered showers. Broken clouds.


Feels Like: 49 °F
Forecast: 39 / 49 °F
Wind: 17 mph from Southwest

Location: Dortmund / Wickede

Current Time: Oct 21, 2014 at 5:11:06 PM

Latest Report: Oct 21, 2014 at 4:20 PM


Visibility: 4 mi

Pressure: 29.47 "Hg

Humidity: 82%

Dew point: 48 °F

Location of HemerLocation

Historic Weather in Hemer — Graph

°F

Hemer temperature yesterday

Maximum temperature yesterday: 61 °F (at 1:50 PM)
Minimum temperature yesterday: 54 °F (at 10:20 PM)
Average temperature yesterday: 57 °F

Past Weeks' High & Low Weather Summary

 TemperatureHumidityPressure
High73 °F (Oct 19, 2:20 PM)94% (Oct 11, 7:50 AM)30.12 "Hg (Oct 11, 7:50 AM)
Low48 °F (Oct 12, 7:50 AM)49% (Oct 10, 2:50 PM)29.50 "Hg (Oct 21, 3:50 PM)
Average58 °F75%29.82 "Hg
* Reported Oct 6 3:20 PM — Oct 21 3:50 PM, Hemer, Weather by CustomWeather, © 2014

Note: Actual official high and low records may vary slightly from our data, if they occured in-between our weather recording intervals... More about our weather records

Advertising

Hemer weather history for previous 24 hours

 ConditionsComfort  
Time TempWeatherWind HumidityBarometerVisibility
3:50 PM
Oct 21
54 °FScattered showers. Partly sunny.18 mph82%29.50 "Hg5 mi
3:20 PM54 °FDrizzle. Partly sunny.22 mph82%29.53 "Hg4 mi
2:50 PM52 °FPartly sunny.18 mph88%29.53 "HgN/A
2:20 PM54 °FSprinkles. Partly sunny.22 mph77%29.56 "Hg6 mi
1:50 PM54 °FSprinkles. Scattered clouds.20 mph77%29.59 "HgN/A
1:20 PM54 °FSprinkles. Partly sunny.20 mph77%29.62 "HgN/A
12:50 PM55 °FPartly sunny.20 mph72%29.65 "HgN/A
12:20 PM55 °FScattered clouds.21 mph72%29.65 "HgN/A
11:50 AM54 °FPartly sunny.20 mph77%29.68 "HgN/A
11:20 AM55 °FScattered clouds.20 mph67%29.68 "HgN/A
10:50 AM54 °FSunny.16 mph77%29.71 "Hg10 mi
10:20 AM54 °FPartly sunny.16 mph77%29.74 "HgN/A
9:50 AM54 °FSunny.16 mph77%29.74 "Hg10 mi
9:20 AM54 °FPartly sunny.15 mph77%29.77 "HgN/A
8:50 AM54 °FPassing clouds.13 mph77%29.77 "HgN/A
8:20 AM54 °FScattered showers. Passing clouds.12 mph82%29.77 "HgN/A
7:50 AM54 °FPassing clouds.12 mph82%29.80 "HgN/A
7:20 AM54 °FPassing clouds.14 mph82%29.80 "HgN/A
6:50 AM52 °FPassing clouds.12 mph88%29.80 "HgN/A
6:20 AM52 °FClear.13 mph82%29.83 "Hg10 mi
5:50 AM52 °FPassing clouds.13 mph82%29.83 "HgN/A
5:20 AM52 °FPassing clouds.13 mph82%29.86 "HgN/A
10:50 PM
Oct 20
54 °FPassing clouds.10 mph88%29.95 "HgN/A
10:20 PM54 °FPassing clouds.8 mph88%29.95 "HgN/A
9:50 PM55 °FPassing clouds.10 mph82%29.95 "HgN/A
9:20 PM55 °FSprinkles. Partly cloudy.8 mph82%29.95 "HgN/A
8:50 PM55 °FPassing clouds.13 mph77%29.95 "HgN/A
8:20 PM55 °FClear.10 mph77%29.95 "Hg10 mi
7:50 PM55 °FPassing clouds.10 mph77%29.98 "HgN/A
7:20 PM55 °FSunny.9 mph77%29.98 "Hg10 mi
6:50 PM55 °FSunny.9 mph77%29.98 "Hg10 mi
6:20 PM57 °FSunny.10 mph72%29.98 "Hg10 mi
5:50 PM57 °FSunny.15 mph72%29.98 "Hg10 mi
5:20 PM59 °FPassing clouds.17 mph68%29.98 "HgN/A
Weather by CustomWeather, © 2014

See weather overviewHow to use our weather pages